Wind_Speed
30 31 31 32 33 34 33 32 30 28 26 25 23 22 20 17 15 13 11 12 15 17 19 20 20 20 19 19 19 18 17 15 13 11 8 6 3 1 3 7 10 13 15 17 18 19 20 20 20 19 17 16 14 14 15 15 16 18 20 20 20 20 21 22 22 23 24 24 25
32 32 32 32 33 33 32 29 27 25 24 22 20 17 14 11 10 10 12 15 18 20 22 22 21 20 19 18 17 16 14 12 9 7 3 1 4 7 10 13 15 16 17 18 18 18 18 18 16 15 14 13 13 14 14 16 19 21 21 21 21 22 22 22 23 23 24 25 25
32 32 32 31 31 30 28 26 23 21 19 16 13 10 8 8 10 12 15 18 21 23 23 22 21 19 17 16 14 12 10 7 4 1 3 7 10 12 14 16 16 16 16 15 15 14 14 12 11 11 12 12 13 14 16 18 21 22 22 22 23 23 23 22 23 23 24 24 25
31 31 30 29 28 26 24 21 19 16 13 9 6 5 8 11 13 16 19 21 22 22 22 21 19 17 14 12 10 7 4 2 2 5 8 11 13 15 16 16 15 13 12 11 10 9 9 9 9 11 12 14 15 16 19 21 22 22 23 23 23 23 23 23 23 23 23 24 24
29 28 27 26 24 22 19 16 13 11 7 4 6 9 12 15 18 20 21 21 21 20 19 18 16 14 11 8 5 3 4 6 7 9 11 14 16 16 15 13 12 10 9 8 8 7 8 9 11 12 14 15 17 20 22 23 23 23 23 24 24 23 23 23 23 23 24 24 24
26 25 23 21 19 16 12 9 6 5 5 8 12 14 17 19 20 20 20 19 19 18 16 14 13 10 7 5 3 4 6 9 10 12 14 15 14 13 11 10 9 8 7 7 6 7 9 11 12 14 15 17 20 22 23 23 23 24 24 24 24 24 23 23 23 24 24 24 25
21 19 17 15 13 9 6 4 5 7 10 13 16 18 19 20 19 19 18 18 17 15 13 10 8 6 5 3 3 6 9 12 13 13 13 12 11 10 9 8 8 7 6 6 7 9 11 12 14 16 17 19 21 22 23 23 23 23 23 23 23 23 23 23 23 23 24 24 25
17 14 12 9 6 3 3 6 9 12 15 16 18 18 18 18 18 18 17 16 13 11 9 7 7 6 4 3 6 9 12 14 13 13 12 11 10 9 8 7 6 6 6 7 9 11 13 14 16 17 18 20 21 22 22 22 22 22 22 22 22 22 22 22 22 23 23 24 25
12 9 6 3 2 5 8 10 13 15 16 15 16 16 16 17 17 15 14 12 9 8 8 8 7 6 5 7 10 12 13 13 13 12 11 9 8 6 5 5 6 7 8 10 11 13 14 16 17 18 19 20 21 21 21 20 20 20 20 21 21 21 22 22 22 22 23 24 24
8 5 2 1 5 9 12 13 13 13 14 14 15 15 15 15 13 12 10 9 8 7 7 8 8 9 10 11 12 13 13 13 12 10 7 5 4 4 6 7 8 10 11 12 14 15 16 17 18 19 19 19 19 19 19 19 19 19 20 21 21 22 22 22 23 23 23 24 24
4 2 2 4 8 11 13 13 12 12 13 14 14 13 12 10 9 8 8 9 9 9 9 9 10 11 11 12 13 13 12 10 7 5 3 4 5 7 8 10 11 12 13 14 15 16 17 17 17 17 17 18 18 19 19 20 20 20 21 22 22 23 23 24 24 24 24 24 25
2 4 5 6 9 11 12 11 11 11 12 11 10 9 7 6 6 7 7 8 9 10 10 11 11 11 11 12 12 11 8 5 3 3 4 6 7 9 10 11 12 14 15 16 17 17 17 17 17 17 18 19 20 20 21 21 22 22 22 23 23 24 24 25 25 25 25 25 25
5 7 8 6 8 10 10 10 10 10 9 9 8 7 6 6 6 6 7 8 9 10 10 11 11 11 11 10 9 6 4 2 3 5 6 7 9 10 12 13 14 16 17 17 18 18 18 18 19 19 20 21 22 22 22 23 23 23 23 24 24 24 25 25 25 25 25 25 25
8 10 9 8 8 9 9 9 9 8 8 7 7 7 7 6 6 6 6 7 8 9 9 9 10 9 9 7 4 2 3 5 6 7 9 10 11 13 14 15 17 18 18 19 19 20 20 21 21 22 22 23 23 23 23 23 23 23 23 24 24 25 25 25 26 26 26 25 26
10 10 9 9 9 8 7 7 7 7 7 7 7 7 7 6 6 6 5 5 6 7 8 8 7 6 4 3 3 5 6 8 9 10 12 13 14 15 16 17 18 19 20 21 21 22 22 22 23 23 23 23 23 23 23 23 23 24 24 24 25 25 26 26 26 26 26 26 26
11 10 9 8 8 7 6 6 6 7 7 7 6 6 7 7 6 5 3 3 5 6 6 5 4 2 2 4 6 7 9 10 11 12 14 15 16 17 18 19 20 20 21 22 22 22 22 22 22 22 22 23 23 23 23 24 24 25 25 26 26 27 27 27 27 27 27 27 27
10 9 8 7 6 6 5 6 6 6 6 6 6 7 7 6 5 2 1 4 5 5 3 2 3 4 5 6 7 8 10 11 12 14 15 16 17 18 19 20 21 21 22 22 22 22 22 22 22 22 22 23 23 24 24 25 26 26 27 27 28 28 28 29 29 28 28 28 28
9 8 6 5 5 4 4 5 5 5 6 6 6 6 5 4 1 2 4 5 4 3 4 4 5 6 7 8 9 10 11 13 14 15 16 17 18 19 20 21 21 22 22 22 21 21 22 22 22 23 23 24 25 25 26 27 27 28 28 29 29 29 29 29 29 29 29 29 29
8 6 5 4 4 4 4 4 5 6 6 6 5 4 2 0 2 4 5 4 4 4 5 6 7 7 8 9 10 11 13 14 15 16 17 18 19 20 21 21 22 22 22 21 22 22 22 23 24 24 25 26 26 27 28 28 28 29 29 29 30 30 30 30 30 30 30 30 30
7 6 5 4 4 4 5 5 6 5 5 3 2 2 1 2 3 4 5 5 5 5 6 7 8 9 10 11 12 13 14 15 16 17 18 19 20 21 21 21 21 21 21 22 22 23 24 25 25 26 27 27 28 28 28 29 29 29 29 29 30 30 30 30 30 30 30 30 30
6 5 5 5 5 5 6 6 5 4 3 2 2 2 2 3 4 5 6 6 6 7 8 9 10 11 11 12 13 14 15 16 17 18 19 20 20 21 21 21 21 21 22 22 23 24 25 26 26 27 27 28 28 28 28 28 28 28 29 29 29 29 29 29 29 29 29 29 29
7 6 6 6 6 6 5 4 3 3 2 2 1 2 3 4 6 7 7 8 8 9 10 11 11 12 12 13 14 15 16 17 19 20 20 21 21 21 21 21 21 22 22 23 24 25 26 26 27 27 27 27 27 27 27 27 27 27 27 28 28 28 28 27 27 27 27 26 26
6 6 5 5 4 4 3 3 2 1 1 2 3 4 6 7 8 9 10 10 11 11 11 12 12 12 13 14 15 17 18 19 20 21 21 21 21 21 20 21 21 22 23 24 25 26 26 26 27 26 26 26 26 26 26 26 26 26 26 26 26 26 26 26 25 25 25 25 25
6 5 4 4 3 2 1 1 2 4 6 7 9 10 10 10 11 12 12 12 12 12 13 13 13 13 14 15 17 19 20 21 22 22 21 21 20 20 21 21 22 23 24 25 26 26 26 25 25 25 25 25 25 25 25 25 25 25 25 25 25 25 25 25 25 25 25 25 25
6 5 5 3 2 1 3 6 8 9 11 12 13 14 14 14 14 14 13 13 13 13 13 13 13 14 15 17 19 21 22 22 22 21 21 20 20 20 21 22 23 24 25 25 25 25 25 24 24 24 24 24 24 24 24 24 24 24 25 25 25 25 25 26 26 26 26 26 26
6 6 4 2 3 6 9 11 12 12 13 14 15 15 15 15 15 14 13 13 13 14 13 13 14 15 17 19 21 22 23 22 21 20 20 20 20 21 22 23 24 25 25 25 25 24 24 24 23 23 23 23 23 23 24 24 24 24 24 25 25 25 25 26 26 27 27 27 27
7 5 4 6 8 10 12 13 13 14 14 15 15 15 15 14 13 13 13 13 14 14 14 14 15 17 19 21 23 23 23 21 20 19 19 20 21 22 23 24 24 24 25 24 24 24 24 24 23 23 23 23 22 22 23 23 24 24 24 24 25 25 25 26 26 27 27 28 28
7 6 7 10 11 12 13 14 14 14 14 14 14 14 14 13 12 13 13 13 14 14 14 16 17 19 21 22 23 22 21 19 19 19 20 21 22 23 23 24 24 24 25 24 24 24 24 24 23 23 22 21 21 21 22 22 23 24 24 24 25 25 25 26 26 27 27 28 28
7 8 10 11 12 13 13 13 13 13 13 13 13 13 13 12 12 12 13 13 14 15 16 18 20 22 22 22 21 20 18 18 19 20 21 22 23 24 24 24 25 25 25 25 25 25 24 24 23 22 21 21 20 21 21 22 23 24 24 25 25 26 26 26 27 27 28 28 29
9 10 11 12 12 13 12 12 12 12 12 12 12 12 12 12 12 12 13 13 15 17 19 21 22 22 21 20 18 17 18 19 20 21 23 23 24 25 25 25 25 25 25 25 25 24 24 23 22 21 20 19 20 20 21 22 23 24 25 26 26 27 27 27 28 28 28 28 29
10 11 11 12 12 12 11 11 11 11 11 12 12 12 12 12 12 12 13 15 17 19 21 21 21 19 18 17 17 17 19 21 22 23 24 24 25 25 25 25 25 25 25 25 24 23 22 21 20 20 19 19 20 21 22 23 24 25 26 26 27 27 27 27 27 27 27 28 28
11 11 11 12 11 11 11 10 10 11 11 12 12 12 12 12 12 13 15 17 19 20 20 19 17 16 15 16 18 20 21 23 24 24 25 25 25 25 25 25 25 25 25 24 23 22 21 20 19 19 20 20 21 22 23 24 25 25 26 26 26 26 26 26 26 26 27 27 27
11 11 11 11 11 11 11 11 11 11 12 12 11 11 11 12 13 15 17 18 19 18 16 15 14 15 16 18 20 21 23 24 24 25 25 25 25 25 25 25 25 25 24 23 21 20 19 19 19 20 20 21 22 23 24 24 24 25 25 25 25 25 25 26 26 26 27 27 27
10 10 11 11 11 11 11 11 11 11 11 11 11 11 12 14 16 17 18 18 16 14 13 13 15 17 18 20 21 22 23 24 24 24 24 24 24 25 25 25 25 24 22 20 19 18 18 19 20 21 22 22 23 23 24 24 24 24 24 24 24 25 25 25 26 26 27 27 27
9 9 10 10 10 10 11 10 10 10 10 11 12 13 15 16 17 17 16 14 13 13 14 16 17 19 21 22 22 23 23 24 24 24 24 24 24 24 24 24 23 21 20 18 18 18 18 19 20 21 22 22 23 23 23 23 23 23 23 23 23 24 25 26 26 27 27 27 27
9 10 11 10 10 10 10 10 10 11 12 13 15 16 16 16 16 14 13 12 13 15 16 18 20 21 21 22 22 22 23 23 23 24 24 24 23 23 23 22 20 19 17 17 17 18 19 20 21 21 22 22 22 22 22 22 21 21 21 22 23 24 25 26 26 27 27 26 26
10 11 11 11 11 11 11 11 12 13 14 15 16 16 15 13 12 12 12 13 15 17 18 19 20 21 21 21 22 22 22 22 23 23 23 22 21 20 20 19 18 17 17 17 18 19 20 21 21 21 21 21 22 22 22 21 20 20 21 21 22 23 24 25 26 26 25 24 23
11 11 11 11 11 11 12 12 13 14 15 15 14 13 12 11 12 13 14 15 16 17 19 20 20 20 21 21 21 22 22 22 22 22 21 20 19 18 17 16 16 16 17 18 19 20 21 21 21 20 20 21 22 22 21 20 20 20 20 20 21 22 22 23 23 22 21 19 18
11 11 10 10 11 12 12 13 13 13 12 11 11 11 11 12 13 14 15 16 17 18 19 19 20 20 21 21 21 22 22 22 21 20 19 18 17 16 15 15 16 18 19 20 21 21 21 21 21 20 20 21 22 22 21 20 20 20 20 19 19 20 20 19 18 17 17 18 19
10 10 10 10 11 12 12 12 11 10 10 10 11 12 13 14 15 15 16 17 18 18 19 20 20 21 21 21 21 22 22 21 20 18 17 16 15 15 15 16 18 19 20 21 22 22 22 22 21 21 21 21 22 22 21 20 19 19 19 19 19 18 17 17 17 18 20 23 24
10 10 10 10 11 11 11 11 10 11 11 12 12 13 14 14 15 16 17 18 19 19 20 20 21 21 21 21 21 21 21 20 18 17 16 15 15 15 16 17 19 20 22 23 23 23 23 22 21 21 21 21 22 22 21 20 20 20 20 19 18 17 17 18 20 22 24 25 25
Wind_Direction
314 311 309 306 302 297 294 293 293 293 293 293 293 291 285 274 259 243 224 203 183 168 159 153 150 147 144 141 139 137 135 136 133 131 130 130 120 76 333 329 323 320 317 313 311 310 311 312 313 313 313 311 306 300 294 289 285 283 284 285 286 287 288 288 288 288 288 287 287
316 313 311 308 304 300 297 296 295 295 294 294 293 288 277 256 226 201 183 171 163 157 151 146 144 141 140 139 138 135 133 134 134 134 130 22 335 327 325 325 321 318 315 313 312 311 312 312 314 314 312 306 300 294 288 285 283 283 285 287 288 289 289 289 289 288 288 288 288
317 314 312 309 305 301 299 297 295 293 292 292 287 273 245 210 186 170 159 154 151 148 144 141 140 139 138 138 137 136 134 133 128 87 339 335 332 329 328 327 324 320 318 316 316 316 317 318 317 311 304 298 293 289 285 283 283 284 286 287 289 289 289 288 288 288 288 287 287
316 314 312 309 305 302 299 297 291 287 285 282 262 213 179 165 157 149 144 142 141 140 140 140 139 138 136 135 133 131 118 57 3 344 339 336 332 329 327 325 324 324 324 325 327 329 326 319 308 299 293 290 288 285 282 282 283 285 287 288 288 288 287 287 287 286 286 285 284
316 313 310 307 304 302 298 293 285 279 268 230 179 157 148 143 140 137 135 134 134 137 139 139 138 136 132 127 117 85 22 358 346 338 334 331 329 327 326 326 327 331 336 340 341 333 318 303 294 290 288 287 285 282 282 283 285 286 287 288 288 287 286 286 285 285 284 282 282
315 312 309 307 304 300 294 282 265 235 189 161 148 141 136 134 135 136 136 135 134 135 134 134 132 128 122 104 64 22 356 346 337 330 327 327 327 328 331 334 338 342 346 344 330 312 298 290 287 286 286 286 284 283 284 285 286 287 287 288 288 288 287 286 285 284 283 281 280
313 311 309 306 303 296 280 235 188 164 152 146 141 135 133 133 136 137 136 134 131 130 127 122 112 104 98 84 23 356 345 339 336 334 334 336 338 339 340 342 344 344 337 321 302 290 285 284 284 285 285 286 285 285 285 286 286 287 287 288 288 288 288 286 285 284 282 281 280
313 311 309 304 294 266 201 173 161 152 145 140 137 136 136 135 134 131 129 127 121 114 104 86 72 69 63 27 356 346 342 341 341 340 339 338 338 340 343 343 337 323 307 294 286 283 283 285 285 285 285 285 284 284 285 286 287 288 288 289 289 289 289 287 287 285 284 282 281
313 312 307 294 216 178 166 159 154 147 141 137 135 135 134 131 128 124 117 108 94 79 64 50 44 34 12 351 345 342 341 340 338 336 334 335 338 340 336 323 307 297 292 290 287 287 287 287 287 286 285 283 282 283 285 288 289 289 290 290 291 291 291 290 289 288 287 285 284
311 305 288 188 163 159 155 149 146 142 137 132 129 127 125 122 118 108 93 75 61 52 43 31 19 6 357 350 347 343 338 334 332 333 337 339 328 309 296 290 287 287 290 292 291 290 288 287 285 283 281 281 283 286 289 291 292 292 293 293 293 293 293 293 292 291 290 288 287
294 260 190 160 153 151 148 142 139 134 128 124 121 119 116 109 97 82 66 53 48 43 34 19 9 3 359 355 348 340 334 331 333 336 328 304 288 283 284 285 285 286 288 289 289 288 287 283 280 279 281 284 287 290 293 294 295 295 295 295 295 295 295 294 294 293 292 290 289
227 181 167 158 153 149 144 135 128 122 118 115 112 108 100 86 71 60 51 45 42 36 26 15 8 3 357 352 347 341 337 336 330 305 289 287 287 287 288 288 287 287 287 287 287 286 284 282 282 284 287 289 292 293 294 295 295 295 295 295 294 294 294 293 293 293 292 291 289
177 165 160 155 154 148 137 124 117 112 107 101 97 90 82 72 61 53 47 41 34 25 16 9 2 357 354 353 354 353 346 318 289 285 288 290 290 288 287 286 286 286 286 287 287 287 286 287 288 290 291 292 293 293 293 293 293 293 293 293 293 292 292 292 292 292 291 290 289
166 157 151 146 144 138 127 114 107 101 95 90 86 84 81 76 67 59 50 40 27 14 5 1 0 1 3 5 1 332 293 283 284 286 286 286 285 285 285 285 286 287 288 289 289 290 290 290 290 291 291 291 291 291 291 291 292 292 292 292 292 292 291 291 291 291 290 289 288
156 148 142 136 134 127 115 105 98 93 91 91 90 90 90 90 86 78 64 43 18 4 359 3 7 10 8 346 290 277 278 280 283 285 285 285 285 285 286 287 288 290 291 292 292 291 291 290 290 290 290 290 290 291 291 292 292 292 292 292 292 291 291 291 291 290 289 288 287
149 141 134 129 125 117 106 99 96 96 97 99 101 103 106 107 106 100 79 29 359 355 358 2 358 336 291 268 268 273 278 281 283 284 285 285 286 287 289 290 291 293 293 293 293 292 291 290 290 290 290 290 291 292 293 293 293 293 293 292 292 291 290 290 289 289 288 287 286
146 138 131 125 119 112 105 102 104 106 108 110 113 115 117 118 119 113 2 340 341 342 335 311 278 263 261 263 270 275 279 281 283 284 286 287 289 290 292 293 294 295 295 295 294 293 292 291 291 291 291 292 293 294 295 295 295 294 293 292 291 290 289 289 288 287 286 286 285
146 140 134 128 121 115 113 116 119 120 120 118 118 119 120 121 130 309 318 324 319 300 272 259 255 259 264 271 276 279 282 284 286 287 289 290 292 293 294 295 295 296 296 295 294 294 293 293 294 294 295 295 296 296 296 295 295 293 292 291 290 289 288 287 286 285 284 284 283
150 146 143 138 132 131 132 133 132 128 123 117 113 110 110 91 310 311 309 299 280 267 262 260 263 268 274 279 282 284 285 288 290 292 293 294 295 295 296 296 296 297 297 297 296 296 297 297 298 298 298 298 298 297 296 295 294 292 291 290 288 287 286 285 285 284 283 282 281
155 155 154 151 147 143 140 136 130 123 116 104 89 68 9 314 304 298 288 274 265 265 268 272 276 279 282 284 286 287 289 291 293 295 296 297 298 298 298 299 299 300 300 299 300 300 300 300 301 300 300 299 298 297 296 294 293 291 290 289 287 286 285 285 284 283 282 281 281
158 157 152 144 136 129 125 121 115 108 96 76 51 16 325 291 279 272 267 264 265 269 275 280 283 285 286 288 289 291 292 294 296 298 299 301 301 302 302 303 303 303 303 302 302 302 302 302 302 301 300 299 298 296 295 293 292 291 290 288 287 287 286 285 285 284 283 282 281
151 144 135 128 122 117 112 109 102 92 78 55 2 311 283 270 264 260 260 263 270 276 281 284 285 287 289 290 292 294 296 297 299 300 302 303 304 304 305 305 305 305 304 304 303 303 303 302 302 301 300 299 297 296 295 294 292 291 290 289 289 288 288 287 286 285 285 284 283
151 145 138 133 128 123 115 105 94 73 340 303 291 278 267 263 260 259 262 269 276 281 284 285 287 288 290 292 294 296 298 299 300 301 302 303 304 304 305 305 305 304 304 304 304 303 303 303 302 301 300 299 298 296 295 294 293 292 291 291 290 290 289 288 287 286 285 285 284
172 170 170 168 156 140 123 4 320 309 300 293 288 278 266 260 259 263 269 275 279 283 284 286 287 289 292 294 296 297 299 300 301 301 302 302 303 303 304 304 304 304 304 304 304 304 304 303 303 302 301 300 298 297 296 295 294 293 292 292 291 290 289 288 287 286 286 285 285
206 206 203 199 192 298 319 316 312 307 301 294 288 278 269 263 264 269 274 279 281 283 285 286 288 290 293 295 296 297 298 299 300 301 302 302 303 303 304 304 304 304 304 304 305 305 305 304 304 303 302 300 299 298 297 296 295 294 294 293 292 291 290 289 288 287 286 286 286
222 221 223 249 303 314 314 311 307 302 297 291 284 276 270 268 270 274 278 280 282 284 286 288 290 292 295 296 297 297 298 299 300 301 303 304 304 305 305 305 306 306 306 306 306 307 306 306 305 304 303 302 301 299 298 297 297 296 295 294 293 292 291 290 289 288 287 287 286
231 238 268 299 307 308 306 303 299 295 291 286 280 274 271 271 273 276 279 282 284 286 288 290 293 295 296 296 296 297 299 300 302 303 305 306 307 307 308 308 308 308 308 308 309 309 308 307 306 305 304 303 301 300 299 298 297 297 296 295 294 292 291 290 289 289 288 288 287
243 265 291 302 303 301 299 296 294 291 288 283 278 274 272 272 274 277 280 283 286 289 292 294 296 297 297 297 297 299 301 303 305 306 308 309 309 310 310 310 310 310 310 310 310 310 309 308 307 306 304 303 301 299 298 298 298 297 296 296 295 294 292 291 290 289 288 288 287
266 286 298 302 302 301 299 296 293 290 287 283 277 274 272 273 275 279 282 286 289 293 296 297 298 298 297 298 300 302 304 307 308 310 311 311 312 312 312 312 312 311 311 311 311 310 309 308 307 306 303 301 299 298 298 298 298 298 298 297 296 294 293 291 289 288 287 286 286
284 295 302 304 305 305 303 300 296 293 288 282 277 273 273 274 277 281 286 290 294 297 298 299 298 298 299 301 304 306 308 310 312 313 313 314 314 313 313 313 312 312 312 312 311 311 309 308 306 304 302 300 299 299 299 300 300 300 299 298 296 294 292 290 289 287 286 285 284
291 298 302 305 307 307 305 302 299 293 287 281 277 275 275 277 281 286 292 296 298 299 299 299 299 300 302 305 308 310 312 313 314 314 315 315 315 314 313 313 313 312 312 312 312 311 309 307 305 303 302 302 302 303 303 303 302 301 299 297 295 293 292 290 288 286 285 284 284
292 296 299 302 304 305 303 300 296 291 286 282 278 277 279 283 289 295 298 300 300 300 300 300 302 305 308 310 312 313 314 315 315 315 315 315 315 314 314 313 313 313 313 313 312 310 308 306 305 304 305 306 307 307 306 305 303 301 298 296 294 293 292 290 288 287 286 285 284
293 296 298 300 301 301 299 295 290 287 285 283 282 284 289 295 298 300 300 300 300 300 301 304 307 311 313 314 315 315 316 316 316 315 315 315 315 314 314 313 313 314 314 313 311 309 307 306 307 308 309 310 310 309 308 306 304 301 299 297 295 294 293 291 290 289 288 287 286
302 304 304 304 302 299 296 291 289 288 289 290 293 296 299 300 299 299 298 299 300 302 306 310 312 314 315 316 316 316 316 315 315 315 315 315 315 314 314 314 314 314 314 313 311 310 309 310 311 312 313 312 311 310 309 307 305 302 299 297 296 296 295 294 292 291 289 288 286
330 331 329 324 318 312 306 302 301 301 302 302 301 300 299 298 296 296 297 299 303 308 311 314 315 316 317 316 316 316 316 316 316 316 316 316 316 315 314 314 314 314 314 313 312 313 313 315 315 315 315 314 313 312 310 308 305 302 299 298 297 296 296 295 293 291 289 288 286
14 10 5 358 350 342 334 327 321 315 310 305 302 299 297 295 295 296 300 306 311 314 316 317 317 317 317 316 316 316 317 317 317 317 317 317 317 316 315 315 315 315 315 315 316 317 318 318 318 317 316 315 314 313 311 308 305 302 300 299 297 297 296 295 293 290 288 286 285
34 26 18 9 0 351 342 332 322 313 307 302 300 298 298 299 301 306 311 315 318 318 318 318 317 317 317 317 317 318 318 319 319 319 319 318 318 317 317 316 316 317 318 319 320 321 321 320 319 319 317 316 315 313 311 309 305 303 301 300 298 298 296 295 291 288 285 283 282
27 18 8 358 346 336 327 318 311 305 302 300 300 302 306 310 314 318 320 321 322 321 320 319 318 318 318 319 320 320 320 320 320 320 320 319 319 319 318 318 318 320 321 323 323 323 323 321 320 318 317 316 315 313 311 309 307 305 303 302 301 299 298 296 293 290 288 288 291
7 359 349 337 327 319 313 308 305 303 303 306 310 315 319 321 322 323 323 323 322 321 321 320 320 320 320 321 322 322 321 321 321 321 321 321 320 320 321 322 322 322 324 325 325 324 323 321 319 318 317 316 315 314 312 310 309 307 306 305 304 303 302 301 301 301 303 305 306
350 341 332 324 319 315 313 311 312 314 318 322 324 325 325 325 324 323 322 321 321 321 321 322 321 321 322 323 323 323 322 321 321 321 321 322 322 323 324 324 324 324 324 325 324 324 322 320 319 318 317 316 315 314 313 311 310 309 308 307 306 306 306 307 308 310 309 308 307
340 334 329 327 326 325 325 327 328 327 327 327 326 326 325 324 323 322 322 322 322 322 323 324 323 323 323 324 324 323 323 322 322 322 322 322 323 324 325 325 325 325 324 324 323 322 321 320 318 317 316 315 315 314 313 312 311 309 307 306 305 305 306 307 308 307 307 306 304
Height
776 775 774 772 771 770 769 767 766 765 764 763 762 761 761 760 761 762 763 764 765 766 767 768 769 769 770 771 772 773 774 775 777 778 779 780 781 781 782 782 783 783 784 784 785 785 785 785 785 786 786 787 787 788 788 789 789 788 787 787 787 786 786 786 785 785 785 785 786
774 773 772 771 769 768 767 766 765 764 763 762 761 760 760 760 760 761 762 763 764 765 766 767 769 769 770 771 772 773 774 775 777 778 779 779 780 780 781 781 782 783 783 784 784 784 784 784 785 785 786 786 787 787 787 787 787 786 786 785 785 785 784 784 784 784 784 784 784
773 772 770 769 768 767 766 765 764 763 762 762 761 760 760 760 760 761 762 763 764 764 766 767 769 770 771 772 773 774 775 776 776 777 778 778 779 779 780 781 782 782 783 783 783 783 783 784 784 785 785 786 786 786 786 786 785 785 784 784 784 783 783 783 782 782 783 783 783
772 771 769 768 767 766 765 764 763 762 762 762 761 761 760 761 761 762 762 763 764 765 766 768 769 771 772 773 774 774 775 775 776 776 776 777 779 779 780 781 781 782 782 782 782 782 782 783 784 784 785 785 785 785 784 784 784 783 783 782 782 782 782 781 781 781 781 781 781
771 770 769 767 766 765 764 764 763 762 762 762 761 761 761 761 762 763 764 764 766 767 768 769 770 771 772 773 774 774 774 775 775 776 777 778 779 780 781 781 781 781 781 781 781 781 782 783 783 784 784 784 784 783 783 783 782 782 781 781 781 780 780 779 779 779 780 780 780
771 769 768 766 765 764 764 763 763 762 762 762 761 762 762 762 763 764 765 766 767 768 769 770 771 771 772 772 773 774 774 775 776 777 778 779 780 780 780 780 780 780 780 780 780 781 782 782 783 783 783 783 782 782 781 781 781 780 780 779 779 779 779 778 778 778 779 779 778
770 769 767 766 765 764 764 763 763 762 762 762 762 762 763 763 764 765 766 767 768 769 770 770 771 771 772 772 773 774 775 776 777 778 779 779 779 779 780 780 779 779 779 780 780 781 781 782 782 781 781 781 780 780 780 780 779 779 779 778 778 777 777 777 777 777 777 777 777
769 768 767 766 765 764 764 763 763 762 762 762 763 763 764 765 765 766 767 768 769 770 770 771 771 771 772 773 774 775 776 777 778 778 778 778 778 779 779 779 779 779 779 779 780 780 780 780 780 780 780 779 779 779 779 779 778 778 777 776 776 776 776 776 776 776 776 776 775
769 768 767 766 765 765 764 764 763 763 763 764 764 765 765 766 767 768 769 769 770 770 771 771 771 772 773 774 774 775 776 777 777 777 777 777 778 778 778 778 778 778 779 779 779 779 779 779 779 779 778 778 778 778 777 777 777 776 775 775 775 774 774 775 775 775 774 774 774
769 768 767 767 766 765 765 764 765 765 765 765 766 766 767 767 768 769 769 770 770 771 771 772 772 773 773 774 774 775 775 775 776 776 776 776 777 777 777 777 777 777 778 778 778 778 778 778 778 777 777 777 776 776 776 775 775 774 774 774 774 773 773 773 773 773 773 773 772
769 768 768 768 767 767 766 766 766 767 767 767 768 768 768 769 769 769 770 770 771 771 772 772 773 773 773 773 774 774 774 775 775 775 775 775 776 776 776 776 777 777 777 777 777 777 776 776 776 776 775 775 775 774 774 774 773 773 772 772 772 772 771 771 771 771 771 771 770
769 769 769 768 768 768 768 768 768 768 768 769 769 769 770 770 770 770 771 771 771 771 772 772 773 773 773 773 773 774 774 774 774 774 775 775 775 775 776 776 776 776 776 776 775 775 775 774 774 774 774 773 773 773 772 772 772 771 771 771 770 770 770 769 769 769 769 769 769
770 769 769 769 769 769 769 769 769 769 769 770 770 770 771 771 771 771 771 771 772 772 772 773 773 773 772 772 773 774 774 774 774 774 774 774 775 775 775 775 775 774 774 774 774 774 773 773 773 772 772 772 771 771 771 771 770 770 769 769 769 769 768 768 768 768 767 767 766
770 770 770 770 770 770 770 770 770 770 770 771 771 771 771 772 772 772 772 772 772 773 773 773 773 773 773 773 773 774 774 774 774 774 774 774 774 774 774 774 773 773 773 773 773 772 772 772 771 771 770 770 770 769 769 769 769 768 768 767 767 767 766 766 766 765 765 765 764
770 771 771 770 771 771 771 771 771 771 771 771 771 771 772 772 772 773 773 773 773 773 773 773 773 773 773 773 773 774 774 774 774 774 774 773 773 773 773 772 772 772 772 771 771 771 770 770 770 769 769 769 768 768 768 767 767 766 766 766 765 765 764 764 764 763 763 763 762
771 771 771 771 771 771 771 772 772 772 772 772 772 772 772 773 773 773 773 773 773 773 773 772 772 773 773 773 773 773 773 774 773 773 773 772 772 772 771 771 771 771 770 770 770 769 769 769 768 768 767 767 766 766 766 765 765 764 764 764 763 763 762 762 761 761 761 760 760
771 772 772 772 772 772 772 772 772 772 772 772 772 773 773 773 773 773 773 773 773 773 772 772 772 773 773 773 773 773 773 773 772 772 772 771 771 771 770 770 770 769 769 769 768 768 768 767 767 766 766 765 765 764 764 763 763 762 762 761 761 760 760 759 759 759 759 758 758
772 772 772 772 772 772 772 772 772 773 773 773 773 773 773 773 773 773 773 773 773 772 772 772 772 772 772 772 772 772 772 772 771 771 771 770 770 769 769 769 769 768 768 767 767 766 766 765 765 764 764 764 763 762 762 761 761 760 760 759 759 758 758 757 757 757 756 756 755
772 772 772 772 772 772 772 773 773 773 773 773 773 773 773 773 773 773 773 772 772 772 772 772 772 772 772 772 771 771 771 771 770 770 769 769 769 769 768 768 767 767 766 766 765 765 764 764 763 763 762 762 761 760 760 759 759 758 758 757 756 756 755 755 754 754 754 753 753
772 772 772 772 772 772 773 773 773 773 773 773 773 773 773 773 773 773 773 773 772 772 772 772 772 772 771 771 771 770 770 770 769 769 769 768 768 767 767 766 766 765 765 764 764 763 763 762 761 761 760 760 759 758 758 757 756 756 755 754 754 754 753 753 752 752 751 751 750
772 772 772 772 773 773 773 773 773 773 773 773 773 773 773 773 773 773 773 772 772 772 772 771 771 771 771 770 770 769 769 769 769 768 768 767 766 766 765 765 764 764 763 763 762 761 761 760 760 759 759 758 757 756 755 755 754 754 753 752 752 751 751 750 750 749 749 749 748
773 773 772 772 772 772 772 772 772 772 772 773 773 773 773 773 773 773 772 772 772 771 771 771 771 770 770 769 769 769 768 768 767 767 766 766 765 764 764 764 763 762 762 761 760 760 759 759 758 757 757 756 755 754 754 753 752 751 751 750 749 749 749 748 748 747 747 746 746
772 772 772 772 772 772 772 772 772 772 772 772 772 772 772 772 772 772 772 771 771 771 771 770 770 769 769 769 768 768 767 767 766 765 765 764 764 763 763 762 761 761 760 759 759 758 758 757 756 755 755 754 753 752 752 751 750 749 749 748 747 747 746 746 745 745 745 744 744
772 772 772 771 771 771 771 772 772 772 771 772 772 771 771 771 771 771 771 770 770 770 770 769 769 769 768 768 767 767 766 765 764 764 763 763 762 762 761 761 760 759 759 758 757 757 756 755 754 754 753 752 751 751 750 749 749 748 747 746 745 745 744 744 744 743 743 742 742
771 771 771 771 771 771 771 771 771 771 771 771 770 770 770 770 770 770 770 769 769 769 769 768 768 767 767 766 766 765 765 764 763 763 762 761 761 760 760 759 759 758 757 756 756 755 754 754 753 752 751 750 750 749 748 748 747 746 745 744 744 743 742 741 741 741 740 740 739
770 770 770 770 770 770 770 770 770 770 769 769 769 769 769 769 769 769 769 769 769 768 768 767 767 766 766 765 765 764 763 763 762 761 760 760 759 759 758 758 757 756 755 755 754 754 753 752 752 751 750 749 748 747 746 745 745 744 744 743 742 741 740 739 739 738 738 737 737
770 770 770 770 769 769 769 769 769 768 768 768 768 768 768 768 768 768 768 768 768 767 767 766 766 765 765 764 763 763 762 761 761 760 759 759 758 757 756 756 755 754 754 753 753 752 751 750 750 749 748 748 747 746 745 744 743 742 742 741 740 739 739 738 737 736 735 735 734
769 769 769 769 769 769 768 768 767 767 767 767 767 767 767 767 767 767 767 767 767 766 766 765 765 764 764 763 762 761 761 760 759 759 758 757 756 756 755 754 754 753 752 752 751 750 749 749 748 747 747 746 745 744 743 742 741 740 739 739 738 737 736 735 734 734 733 732 732
769 769 769 769 768 768 767 767 766 766 766 766 766 767 767 767 767 767 766 766 766 765 765 764 764 763 762 761 761 760 759 759 758 758 757 756 755 754 754 753 752 751 751 750 749 749 748 747 746 746 745 744 744 743 741 740 739 739 738 737 736 735 734 734 733 732 731 730 729
768 768 768 768 767 767 766 766 766 766 766 766 766 766 766 766 766 766 765 765 765 764 764 763 762 761 761 760 759 759 758 758 757 756 755 754 754 753 752 751 751 750 749 749 748 747 746 745 745 744 743 743 742 741 740 739 738 737 736 735 734 733 732 731 730 729 729 728 727
768 768 767 767 767 766 766 766 766 766 766 766 766 766 766 765 765 765 765 764 764 763 763 762 761 760 760 759 759 758 757 756 755 755 754 753 752 751 751 750 749 749 748 747 746 745 745 744 743 743 742 741 740 739 738 737 736 735 734 733 732 731 730 729 728 727 726 725 724
767 767 767 766 766 766 766 765 765 765 765 765 765 765 765 765 764 764 764 763 763 762 761 761 760 759 759 758 757 757 756 755 754 753 753 752 751 750 749 749 748 747 746 746 745 744 743 742 742 741 740 739 738 737 736 735 734 733 732 730 729 729 728 727 726 725 724 723 722
766 766 766 766 766 765 765 765 765 765 765 765 765 765 765 764 764 763 763 762 762 761 760 759 759 758 758 757 756 755 754 754 753 752 751 751 750 749 748 747 746 746 745 744 743 743 742 741 740 739 739 738 736 735 734 733 732 730 729 728 727 726 725 724 724 723 722 721 720
766 766 766 765 765 765 765 765 765 765 765 765 765 764 764 764 763 762 762 761 760 760 759 759 758 757 756 755 754 754 753 752 751 751 750 749 749 748 746 746 745 744 744 743 742 741 740 739 739 738 737 736 735 734 732 731 729 728 727 726 725 724 723 722 721 720 719 719 718
766 766 765 765 765 765 765 765 765 765 765 764 764 764 763 763 762 761 761 760 759 759 758 757 757 756 755 754 754 753 752 751 750 749 749 748 747 746 745 744 744 743 742 741 740 740 739 738 737 736 735 734 733 732 730 729 728 726 725 724 723 722 721 720 719 718 717 716 716
765 765 765 765 765 765 765 765 765 764 764 764 763 763 762 761 761 760 759 759 758 758 757 756 755 754 754 753 752 752 751 750 749 748 748 747 746 744 744 743 742 742 741 740 739 739 738 737 736 735 734 732 731 730 729 727 726 724 724 722 721 720 719 718 717 716 715 714 714
765 765 765 765 765 765 765 765 765 764 764 763 762 762 761 760 760 759 759 758 757 756 755 755 754 753 753 752 751 751 750 749 748 747 746 745 744 743 742 741 741 740 740 739 738 737 736 735 734 733 732 731 729 728 727 726 724 723 722 721 719 719 717 716 715 714 713 712 711
766 766 766 766 765 765 765 765 764 764 763 762 762 761 760 759 759 758 758 757 756 755 754 754 753 752 752 751 750 749 749 748 747 746 745 744 743 742 741 740 739 739 739 738 737 736 735 734 733 732 731 729 728 727 725 724 723 722 720 719 718 717 715 714 713 712 711 710 710
766 766 766 766 765 765 765 764 764 763 762 761 761 760 759 759 758 757 757 756 755 754 754 753 752 751 751 750 749 748 747 747 746 745 744 743 742 741 740 739 739 738 737 736 735 734 734 732 731 730 729 728 727 725 724 723 721 720 719 718 716 715 714 713 712 711 710 709 709
767 766 766 766 765 765 764 764 763 762 761 761 760 759 759 758 757 756 756 755 754 754 753 752 751 750 749 749 748 747 746 745 744 744 743 742 741 740 739 739 738 737 736 735 734 733 732 731 730 729 728 726 725 724 723 722 720 719 718 716 715 714 713 712 711 710 709 708 707
767 766 766 765 765 764 763 763 762 761 761 760 759 759 758 757 756 755 755 754 753 753 752 751 750 749 748 748 747 746 745 744 743 743 742 741 740 739 739 737 736 735 734 734 733 732 730 729 728 727 726 725 724 723 722 720 719 718 716 715 714 713 711 710 709 708 707 706 704